| time (UTC) | temp F | wind direction | speed knots | gust knots | rain 1hr in | rain 24hr in | rain mn in | humidity % | barometer mb |
| 20260506004549 | 73 | 337 | 0.9 | 7.8 | 0.00 | 0.00 | 0.00 | 69 | 1005.8 |
| 20260506004044 | 73 | 342 | 0.9 | 7.8 | 0.00 | 0.00 | 0.00 | 68 | 1005.5 |
| 20260506003549 | 73 | 38 | 1.7 | 7.8 | 0.00 | 0.00 | 0.00 | 68 | 1005.1 |
| 20260506003051 | 74 | 11 | 2.6 | 7.8 | 0.00 | 0.00 | 0.00 | 68 | 1005.3 |
| 20260506002544 | 74 | 11 | 0.9 | 6.1 | 0.00 | 0.00 | 0.00 | 68 | 1005.4 |
| 20260506002044 | 75 | 5 | 1.7 | 7.0 | 0.00 | 0.00 | 0.00 | 68 | 1005.1 |
| 20260506001554 | 75 | 333 | 1.7 | 7.0 | 0.00 | 0.00 | 0.00 | 67 | 1005.1 |
| 20260506001044 | 76 | 355 | 2.6 | 7.0 | 0.00 | 0.00 | 0.00 | 66 | 1005.2 |
| 20260506000548 | 77 | 31 | 1.7 | 5.2 | 0.00 | 0.00 | 0.00 | 66 | 1005.1 |
| 20260506000053 | 77 | 360 | 0.9 | 5.2 | 0.00 | 0.00 | 0.00 | 65 | 1005.0 |
| 20260505235548 | 78 | 17 | 0.9 | 5.2 | 0.00 | 0.00 | 0.00 | 65 | 1004.7 |
| 20260505235050 | 78 | 338 | 0.9 | 4.3 | 0.00 | 0.00 | 0.00 | 65 | 1004.9 |
| 20260505234552 | 79 | 351 | 0.9 | 3.5 | 0.00 | 0.00 | 0.00 | 64 | 1004.7 |
| 20260505234047 | 79 | 281 | 0.9 | 5.2 | 0.00 | 0.00 | 0.00 | 64 | 1004.6 |
| 20260505233547 | 79 | 325 | 0.9 | 6.1 | 0.00 | 0.00 | 0.00 | 64 | 1004.6 |
| 20260505233105 | 80 | 36 | 1.7 | 6.1 | 0.00 | 0.00 | 0.00 | 63 | 1004.5 |
| 20260505232550 | 80 | 344 | 0.9 | 6.1 | 0.00 | 0.00 | 0.00 | 63 | 1004.6 |
| 20260505232048 | 81 | 288 | 1.7 | 6.1 | 0.00 | 0.00 | 0.00 | 61 | 1004.9 |
| 20260505231551 | 81 | 329 | 0.9 | 6.1 | 0.00 | 0.00 | 0.00 | 60 | 1004.8 |
| 20260505231047 | 82 | 281 | 1.7 | 7.0 | 0.00 | 0.00 | 0.00 | 60 | 1004.5 |
| 20260505230544 | 82 | 0 | 1.7 | 7.0 | 0.00 | 0.00 | 0.00 | 60 | 1004.4 |
| 20260505230058 | 83 | 289 | 2.6 | 7.0 | 0.00 | 0.00 | 0.00 | 59 | 1004.5 |
| 20260505225546 | 83 | 300 | 1.7 | 7.0 | 0.00 | 0.00 | 0.00 | 59 | 1004.4 |
| 20260505225045 | 84 | 294 | 1.7 | 4.3 | 0.00 | 0.00 | 0.00 | 57 | 1004.2 |
| 20260505224554 | 85 | 0 | 0.9 | 7.0 | 0.00 | 0.00 | 0.00 | 57 | 1004.0 |
| 20260505224049 | 85 | 0 | 1.7 | 7.0 | 0.00 | 0.00 | 0.00 | 55 | 1004.0 |
| 20260505223544 | 85 | 0 | 1.7 | 7.0 | 0.00 | 0.00 | 0.00 | 54 | 1004.1 |
| 20260505223052 | 85 | 325 | 0.9 | 7.0 | 0.00 | 0.00 | 0.00 | 54 | 1004.3 |
| 20260505222544 | 85 | 329 | 1.7 | 4.3 | 0.00 | 0.00 | 0.00 | 53 | 1004.1 |
| 20260505222048 | 86 | 325 | 0.9 | 7.0 | 0.00 | 0.00 | 0.00 | 52 | 1003.9 |
| 20260505221555 | 86 | 299 | 0.9 | 7.0 | 0.00 | 0.00 | 0.00 | 52 | 1003.9 |
| 20260505221046 | 87 | 349 | 1.7 | 7.0 | 0.00 | 0.00 | 0.00 | 51 | 1003.8 |
| 20260505220544 | 88 | 15 | 1.7 | 8.7 | 0.00 | 0.00 | 0.00 | 50 | 1003.7 |
| 20260505220055 | 89 | 355 | 0.9 | 8.7 | 0.00 | 0.00 | 0.00 | 50 | 1003.6 |
| 20260505215547 | 91 | 287 | 1.7 | 7.0 | 0.00 | 0.00 | 0.00 | 48 | 1003.4 |
| 20260505215044 | 92 | 351 | 1.7 | 7.0 | 0.00 | 0.00 | 0.00 | 48 | 1003.6 |
| 20260505214604 | 93 | 292 | 0.9 | 6.1 | 0.00 | 0.00 | 0.00 | 45 | 1003.7 |
| 20260505214043 | 93 | 263 | 1.7 | 6.1 | 0.00 | 0.00 | 0.00 | 46 | 1003.7 |
| 20260505213543 | 93 | 236 | 0.9 | 7.0 | 0.00 | 0.00 | 0.00 | 44 | 1003.7 |
| 20260505213051 | 94 | 232 | 1.7 | 7.0 | 0.00 | 0.00 | 0.00 | 46 | 1003.5 |
| 20260505212548 | 94 | 307 | 1.7 | 7.0 | 0.00 | 0.00 | 0.00 | 47 | 1003.7 |
| 20260505212048 | 93 | 0 | 0.9 | 6.1 | 0.00 | 0.00 | 0.00 | 48 | 1003.7 |
| 20260505211549 | 93 | 281 | 0.9 | 6.1 | 0.00 | 0.00 | 0.00 | 48 | 1003.8 |
| 20260505211045 | 93 | 286 | 0.9 | 6.1 | 0.00 | 0.00 | 0.00 | 49 | 1004.0 |
| 20260505210547 | 93 | 246 | 0.9 | 3.5 | 0.00 | 0.00 | 0.00 | 50 | 1003.9 |
| 20260505210051 | 92 | 207 | 0.9 | 7.0 | 0.00 | 0.00 | 0.00 | 50 | 1004.0 |
| 20260505205547 | 92 | 281 | 1.7 | 7.0 | 0.00 | 0.00 | 0.00 | 50 | 1004.1 |
| 20260505205044 | 92 | 0 | 0.9 | 8.7 | 0.00 | 0.00 | 0.00 | 52 | 1004.0 |
| 20260505204618 | 92 | 282 | 2.6 | 8.7 | 0.00 | 0.00 | 0.00 | 51 | 1004.0 |
| 20260505204046 | 91 | 183 | 0.9 | 7.8 | 0.00 | 0.00 | 0.00 | 53 | 1004.3 |
| 20260505203547 | 91 | 0 | 1.7 | 7.8 | 0.00 | 0.00 | 0.00 | 53 | 1004.2 |
| 20260505203049 | 91 | 248 | 2.6 | 7.0 | 0.00 | 0.00 | 0.00 | 53 | 1004.3 |
| 20260505202550 | 91 | 245 | 0.9 | 7.8 | 0.00 | 0.00 | 0.00 | 53 | 1004.3 |
| 20260505202047 | 90 | 211 | 0.9 | 7.8 | 0.00 | 0.00 | 0.00 | 56 | 1004.4 |
| 20260505201557 | 90 | 269 | 1.7 | 7.8 | 0.00 | 0.00 | 0.00 | 54 | 1004.5 |
| 20260505201044 | 90 | 238 | 0.9 | 7.8 | 0.00 | 0.00 | 0.00 | 56 | 1004.4 |
| 20260505200544 | 90 | 248 | 2.6 | 7.8 | 0.00 | 0.00 | 0.00 | 55 | 1004.5 |
| 20260505200054 | 90 | 317 | 1.7 | 9.6 | 0.00 | 0.00 | 0.00 | 56 | 1004.6 |
| 20260505195546 | 90 | 0 | 1.7 | 9.6 | 0.00 | 0.00 | 0.00 | 57 | 1004.5 |
| 20260505195048 | 89 | 248 | 1.7 | 10.4 | 0.00 | 0.00 | 0.00 | 56 | 1004.5 |
| 20260505194552 | 89 | 306 | 3.5 | 10.4 | 0.00 | 0.00 | 0.00 | 57 | 1004.4 |
| 20260505194044 | 89 | 243 | 2.6 | 10.4 | 0.00 | 0.00 | 0.00 | 57 | 1004.5 |
| 20260505193548 | 89 | 244 | 2.6 | 10.4 | 0.00 | 0.00 | 0.00 | 57 | 1004.6 |
| 20260505193053 | 88 | 213 | 2.6 | 7.8 | 0.00 | 0.00 | 0.00 | 58 | 1004.6 |
| 20260505192547 | 88 | 296 | 1.7 | 9.6 | 0.00 | 0.00 | 0.00 | 58 | 1004.7 |
| 20260505192047 | 88 | 221 | 2.6 | 11.3 | 0.00 | 0.00 | 0.00 | 59 | 1004.5 |
| 20260505191603 | 87 | 240 | 3.5 | 11.3 | 0.00 | 0.00 | 0.00 | 59 | 1004.6 |
| 20260505191049 | 87 | 231 | 3.5 | 9.6 | 0.00 | 0.00 | 0.00 | 60 | 1004.7 |
| 20260505190550 | 87 | 65 | 0.9 | 7.8 | 0.00 | 0.00 | 0.00 | 62 | 1004.7 |
| 20260505190058 | 86 | 194 | 2.6 | 7.8 | 0.00 | 0.00 | 0.00 | 63 | 1004.6 |
| 20260505185547 | 86 | 273 | 2.6 | 8.7 | 0.00 | 0.00 | 0.00 | 64 | 1004.7 |
| 20260505185047 | 86 | 277 | 0.9 | 9.6 | 0.00 | 0.00 | 0.00 | 63 | 1004.7 |
| 20260505184551 | 85 | 229 | 1.7 | 9.6 | 0.00 | 0.00 | 0.00 | 63 | 1004.8 |
| 20260505184044 | 85 | 168 | 1.7 | 7.0 | 0.00 | 0.00 | 0.00 | 64 | 1004.9 |
| 20260505183544 | 85 | 240 | 0.9 | 7.0 | 0.00 | 0.00 | 0.00 | 64 | 1004.9 |
| 20260505183124 | 85 | 281 | 1.7 | 7.0 | 0.00 | 0.00 | 0.00 | 64 | 1004.8 |
| 20260505182544 | 85 | 240 | 1.7 | 7.0 | 0.00 | 0.00 | 0.00 | 65 | 1005.0 |
| 20260505182048 | 85 | 243 | 1.7 | 7.0 | 0.00 | 0.00 | 0.00 | 64 | 1005.0 |
| 20260505181553 | 84 | 161 | 0.9 | 7.8 | 0.00 | 0.00 | 0.00 | 66 | 1004.8 |
| 20260505181044 | 84 | 239 | 0.9 | 7.8 | 0.00 | 0.00 | 0.00 | 66 | 1005.0 |
| 20260505180543 | 84 | 239 | 2.6 | 8.7 | 0.00 | 0.00 | 0.00 | 67 | 1004.9 |
| 20260505180049 | 83 | 235 | 1.7 | 11.3 | 0.00 | 0.00 | 0.00 | 67 | 1004.9 |
| 20260505175547 | 83 | 254 | 2.6 | 11.3 | 0.00 | 0.00 | 0.00 | 66 | 1005.0 |
| 20260505175048 | 83 | 268 | 1.7 | 9.6 | 0.00 | 0.00 | 0.00 | 66 | 1004.9 |
| 20260505174552 | 83 | 324 | 1.7 | 9.6 | 0.00 | 0.00 | 0.00 | 66 | 1004.9 |
| 20260505174048 | 83 | 159 | 1.7 | 8.7 | 0.00 | 0.00 | 0.00 | 66 | 1004.8 |
| 20260505173548 | 83 | 234 | 2.6 | 10.4 | 0.00 | 0.00 | 0.00 | 66 | 1004.8 |
| 20260505173059 | 83 | 181 | 1.7 | 10.4 | 0.00 | 0.00 | 0.00 | 67 | 1004.8 |
| 20260505172550 | 83 | 191 | 1.7 | 10.4 | 0.00 | 0.00 | 0.00 | 67 | 1005.0 |
| 20260505172047 | 83 | 238 | 0.9 | 10.4 | 0.00 | 0.00 | 0.00 | 67 | 1005.0 |
| 20260505171604 | 83 | 241 | 1.7 | 7.0 | 0.00 | 0.00 | 0.00 | 66 | 1005.0 |
| 20260505171044 | 83 | 255 | 1.7 | 9.6 | 0.00 | 0.00 | 0.00 | 68 | 1004.9 |
| 20260505170543 | 82 | 203 | 2.6 | 9.6 | 0.00 | 0.00 | 0.00 | 68 | 1005.0 |
| 20260505170058 | 82 | 259 | 1.7 | 9.6 | 0.00 | 0.00 | 0.00 | 69 | 1005.0 |
| 20260505165544 | 81 | 252 | 2.6 | 11.3 | 0.00 | 0.00 | 0.00 | 69 | 1005.0 |
| 20260505165044 | 81 | 289 | 1.7 | 13.0 | 0.00 | 0.00 | 0.00 | 70 | 1005.0 |
| 20260505164552 | 80 | 207 | 5.2 | 13.0 | 0.00 | 0.00 | 0.00 | 70 | 1004.9 |
| 20260505164044 | 80 | 222 | 3.5 | 13.0 | 0.00 | 0.00 | 0.00 | 71 | 1005.0 |
| 20260505163547 | 80 | 261 | 3.5 | 12.2 | 0.00 | 0.00 | 0.00 | 70 | 1004.9 |
| 20260505163102 | 80 | 261 | 3.5 | 12.2 | 0.00 | 0.00 | 0.00 | 71 | 1004.8 |
| 20260505162544 | 80 | 248 | 2.6 | 14.8 | 0.00 | 0.00 | 0.00 | 71 | 1004.9 |
| 20260505162044 | 80 | 246 | 3.5 | 14.8 | 0.00 | 0.00 | 0.00 | 71 | 1004.9 |
| 20260505161629 | 80 | 232 | 2.6 | 9.6 | 0.00 | 0.00 | 0.00 | 71 | 1004.8 |
| 20260505161047 | 80 | 304 | 4.3 | 12.2 | 0.00 | 0.00 | 0.00 | 71 | 1004.9 |
| 20260505160544 | 80 | 268 | 3.5 | 12.2 | 0.00 | 0.00 | 0.00 | 72 | 1004.9 |
| 20260505153059 | 77 | 337 | 2.6 | 10.4 | 0.00 | 0.00 | 0.00 | 76 | 1004.4 |
| 20260505152548 | 77 | 315 | 2.6 | 8.7 | 0.00 | 0.00 | 0.00 | 76 | 1004.3 |
| 20260505152043 | 77 | 281 | 2.6 | 8.7 | 0.00 | 0.00 | 0.00 | 76 | 1004.5 |
| 20260505151618 | 77 | 248 | 1.7 | 9.6 | 0.00 | 0.00 | 0.00 | 76 | 1004.4 |
| 20260505151044 | 77 | 227 | 3.5 | 9.6 | 0.00 | 0.00 | 0.00 | 76 | 1004.4 |
| 20260505150548 | 77 | 235 | 1.7 | 8.7 | 0.00 | 0.00 | 0.00 | 77 | 1004.4 |
| 20260505140546 | 73 | 225 | 2.6 | 12.2 | 0.00 | 0.00 | 0.00 | 82 | 1004.1 |
| 20260505124551 | 70 | 229 | 1.7 | 11.3 | 0.00 | 0.00 | 0.00 | 86 | 1003.8 |
| 20260505124047 | 70 | 269 | 2.6 | 9.6 | 0.00 | 0.00 | 0.00 | 87 | 1003.8 |
| 20260505123549 | 70 | 162 | 1.7 | 7.8 | 0.00 | 0.00 | 0.00 | 87 | 1003.8 |
| 20260505123054 | 70 | 121 | 1.7 | 10.4 | 0.00 | 0.00 | 0.00 | 87 | 1003.9 |
| 20260505122546 | 70 | 0 | 2.6 | 10.4 | 0.00 | 0.00 | 0.00 | 87 | 1003.7 |
| 20260505122047 | 70 | 179 | 1.7 | 7.8 | 0.00 | 0.00 | 0.00 | 87 | 1003.7 |
| 20260505121556 | 70 | 225 | 2.6 | 8.7 | 0.00 | 0.00 | 0.00 | 87 | 1003.4 |
| 20260505121048 | 70 | 265 | 1.7 | 8.7 | 0.00 | 0.00 | 0.00 | 87 | 1003.4 |
| 20260505120544 | 70 | 255 | 1.7 | 8.7 | 0.00 | 0.00 | 0.00 | 87 | 1003.3 |
| 20260505120108 | 70 | 149 | 1.7 | 12.2 | 0.00 | 0.00 | 0.00 | 87 | 1003.4 |
| 20260505115546 | 70 | 237 | 2.6 | 12.2 | 0.00 | 0.00 | 0.00 | 87 | 1003.4 |
| 20260505115046 | 70 | 252 | 2.6 | 13.0 | 0.00 | 0.00 | 0.00 | 87 | 1003.3 |
| 20260505114550 | 70 | 183 | 0.9 | 13.0 | 0.00 | 0.00 | 0.00 | 87 | 1003.3 |
| 20260505114047 | 70 | 267 | 3.5 | 13.0 | 0.00 | 0.00 | 0.00 | 87 | 1003.3 |
| 20260505113546 | 70 | 255 | 1.7 | 13.0 | 0.00 | 0.00 | 0.00 | 87 | 1003.2 |
| 20260505113048 | 70 | 206 | 1.7 | 13.0 | 0.00 | 0.00 | 0.00 | 87 | 1003.1 |
| 20260505112547 | 70 | 288 | 3.5 | 13.0 | 0.00 | 0.00 | 0.00 | 87 | 1003.1 |
| 20260505112043 | 70 | 215 | 2.6 | 8.7 | 0.00 | 0.00 | 0.00 | 87 | 1003.2 |
| 20260505111552 | 70 | 236 | 0.9 | 7.8 | 0.00 | 0.00 | 0.00 | 86 | 1003.1 |
| 20260505111048 | 70 | 188 | 1.7 | 8.7 | 0.00 | 0.00 | 0.00 | 87 | 1003.2 |
| 20260505110548 | 70 | 281 | 1.7 | 10.4 | 0.00 | 0.00 | 0.00 | 87 | 1003.2 |
| 20260505102047 | 70 | 237 | 2.6 | 10.4 | 0.00 | 0.00 | 0.00 | 86 | 1003.1 |
| 20260505101555 | 70 | 217 | 2.6 | 12.2 | 0.00 | 0.00 | 0.00 | 86 | 1003.2 |
| 20260505101044 | 70 | 277 | 3.5 | 12.2 | 0.00 | 0.00 | 0.00 | 85 | 1003.1 |
| 20260505100544 | 70 | 243 | 1.7 | 10.4 | 0.00 | 0.00 | 0.00 | 85 | 1003.2 |
| 20260505100054 | 70 | 142 | 2.6 | 12.2 | 0.00 | 0.00 | 0.00 | 85 | 1003.3 |
| 20260505095543 | 71 | 202 | 2.6 | 13.0 | 0.00 | 0.00 | 0.00 | 85 | 1003.2 |
| 20260505095046 | 71 | 263 | 3.5 | 13.0 | 0.00 | 0.00 | 0.00 | 85 | 1003.2 |
| 20260505094550 | 71 | 227 | 1.7 | 11.3 | 0.00 | 0.00 | 0.00 | 85 | 1003.2 |
| 20260505094051 | 71 | 176 | 2.6 | 12.2 | 0.00 | 0.00 | 0.00 | 84 | 1003.2 |
| 20260505093544 | 71 | 169 | 2.6 | 12.2 | 0.00 | 0.00 | 0.00 | 84 | 1003.1 |
| 20260505093057 | 71 | 145 | 1.7 | 8.7 | 0.00 | 0.00 | 0.00 | 84 | 1003.3 |
| 20260505092546 | 71 | 206 | 2.6 | 8.7 | 0.00 | 0.00 | 0.00 | 84 | 1003.3 |
| 20260505092047 | 71 | 200 | 1.7 | 9.6 | 0.00 | 0.00 | 0.00 | 84 | 1003.3 |
| 20260505091550 | 71 | 159 | 1.7 | 9.6 | 0.00 | 0.00 | 0.00 | 84 | 1003.4 |
| 20260505091042 | 71 | 199 | 2.6 | 13.0 | 0.00 | 0.00 | 0.00 | 83 | 1003.5 |
| 20260505090543 | 71 | 271 | 2.6 | 13.0 | 0.00 | 0.00 | 0.00 | 83 | 1003.6 |
| 20260505090052 | 71 | 169 | 2.6 | 13.0 | 0.00 | 0.00 | 0.00 | 83 | 1003.6 |
| 20260505085543 | 71 | 152 | 2.6 | 12.2 | 0.00 | 0.00 | 0.00 | 83 | 1003.7 |
| 20260505085043 | 71 | 250 | 2.6 | 13.0 | 0.00 | 0.00 | 0.00 | 83 | 1003.7 |
| 20260505084547 | 71 | 173 | 1.7 | 13.0 | 0.00 | 0.00 | 0.00 | 82 | 1003.6 |
| 20260505084043 | 72 | 217 | 3.5 | 13.0 | 0.00 | 0.00 | 0.00 | 82 | 1003.5 |
| 20260505083546 | 72 | 205 | 2.6 | 14.8 | 0.00 | 0.00 | 0.00 | 82 | 1003.7 |
| 20260505083051 | 72 | 147 | 3.5 | 14.8 | 0.00 | 0.00 | 0.00 | 82 | 1003.7 |
| 20260505082548 | 72 | 214 | 1.7 | 13.0 | 0.00 | 0.00 | 0.00 | 82 | 1003.6 |
| 20260505082048 | 72 | 186 | 3.5 | 14.8 | 0.00 | 0.00 | 0.00 | 82 | 1003.5 |
| 20260505081552 | 72 | 250 | 4.3 | 14.8 | 0.00 | 0.00 | 0.00 | 81 | 1003.4 |
| 20260505081046 | 72 | 252 | 3.5 | 15.6 | 0.00 | 0.00 | 0.00 | 81 | 1003.6 |
| 20260505080547 | 72 | 271 | 2.6 | 15.6 | 0.00 | 0.00 | 0.00 | 81 | 1003.7 |
| 20260505080055 | 72 | 178 | 3.5 | 12.2 | 0.00 | 0.00 | 0.00 | 81 | 1003.6 |
| 20260505075547 | 72 | 185 | 4.3 | 12.2 | 0.00 | 0.00 | 0.00 | 80 | 1003.7 |
| 20260505075043 | 72 | 164 | 3.5 | 12.2 | 0.00 | 0.00 | 0.00 | 80 | 1003.6 |
| 20260505074557 | 72 | 214 | 4.3 | 12.2 | 0.00 | 0.00 | 0.00 | 79 | 1003.8 |
| 20260505074043 | 72 | 178 | 3.5 | 10.4 | 0.00 | 0.00 | 0.00 | 79 | 1003.9 |
| 20260505073543 | 72 | 171 | 4.3 | 10.4 | 0.00 | 0.00 | 0.00 | 79 | 1004.0 |
| 20260505073104 | 72 | 166 | 4.3 | 10.4 | 0.00 | 0.00 | 0.00 | 79 | 1004.1 |
| 20260505072543 | 73 | 192 | 1.7 | 10.4 | 0.00 | 0.00 | 0.00 | 78 | 1004.3 |
| 20260505072046 | 73 | 236 | 3.5 | 11.3 | 0.00 | 0.00 | 0.00 | 78 | 1004.2 |
| 20260505071553 | 73 | 221 | 3.5 | 13.0 | 0.00 | 0.00 | 0.00 | 78 | 1004.3 |
| 20260505071047 | 73 | 143 | 3.5 | 13.0 | 0.00 | 0.00 | 0.00 | 78 | 1004.4 |
| 20260505070547 | 73 | 198 | 2.6 | 12.2 | 0.00 | 0.00 | 0.00 | 77 | 1004.5 |
| 20260505070049 | 73 | 167 | 2.6 | 9.6 | 0.00 | 0.00 | 0.00 | 77 | 1004.5 |
| 20260505065547 | 73 | 179 | 2.6 | 9.6 | 0.00 | 0.00 | 0.00 | 77 | 1004.8 |
| 20260505065047 | 73 | 167 | 3.5 | 12.2 | 0.00 | 0.00 | 0.00 | 76 | 1004.8 |
| 20260505064550 | 73 | 165 | 2.6 | 12.2 | 0.00 | 0.00 | 0.00 | 76 | 1005.0 |
| 20260505064046 | 73 | 271 | 4.3 | 13.0 | 0.00 | 0.00 | 0.00 | 76 | 1004.9 |
| 20260505063543 | 74 | 331 | 2.6 | 15.6 | 0.00 | 0.00 | 0.00 | 75 | 1004.9 |
| 20260505063050 | 74 | 186 | 4.3 | 15.6 | 0.00 | 0.00 | 0.00 | 75 | 1005.0 |
| 20260505062546 | 74 | 175 | 2.6 | 13.0 | 0.00 | 0.00 | 0.00 | 75 | 1005.0 |
| 20260505062043 | 74 | 217 | 0.9 | 9.6 | 0.00 | 0.00 | 0.00 | 74 | 1005.0 |
| 20260505061557 | 74 | 164 | 2.6 | 12.2 | 0.00 | 0.00 | 0.00 | 74 | 1005.1 |
| 20260505061042 | 74 | 126 | 4.3 | 14.8 | 0.00 | 0.00 | 0.00 | 74 | 1005.0 |
| 20260505060542 | 74 | 169 | 2.6 | 14.8 | 0.00 | 0.00 | 0.00 | 73 | 1005.1 |
| 20260505060059 | 74 | 253 | 3.5 | 10.4 | 0.00 | 0.00 | 0.00 | 73 | 1005.0 |
| 20260505055542 | 74 | 182 | 2.6 | 9.6 | 0.00 | 0.00 | 0.00 | 73 | 1005.1 |
| 20260505055047 | 74 | 217 | 4.3 | 13.0 | 0.00 | 0.00 | 0.00 | 72 | 1005.1 |
| 20260505054609 | 74 | 225 | 3.5 | 13.0 | 0.00 | 0.00 | 0.00 | 72 | 1005.0 |
| 20260505054048 | 74 | 188 | 3.5 | 12.2 | 0.00 | 0.00 | 0.00 | 72 | 1005.0 |
| 20260505053543 | 75 | 250 | 2.6 | 14.8 | 0.00 | 0.00 | 0.00 | 72 | 1004.9 |
| 20260505053101 | 74 | 239 | 4.3 | 14.8 | 0.00 | 0.00 | 0.00 | 72 | 1004.9 |
| 20260505052547 | 74 | 219 | 4.3 | 13.9 | 0.00 | 0.00 | 0.00 | 72 | 1005.0 |
| 20260505052045 | 74 | 170 | 3.5 | 12.2 | 0.00 | 0.00 | 0.00 | 72 | 1005.1 |
| 20260505051549 | 75 | 190 | 3.5 | 11.3 | 0.00 | 0.00 | 0.00 | 72 | 1005.0 |
| 20260505051044 | 74 | 153 | 2.6 | 11.3 | 0.00 | 0.00 | 0.00 | 72 | 1005.0 |
| 20260505050543 | 74 | 61 | 2.6 | 10.4 | 0.00 | 0.00 | 0.00 | 72 | 1005.2 |
| 20260505050105 | 75 | 224 | 2.6 | 10.4 | 0.00 | 0.00 | 0.00 | 72 | 1005.3 |
| 20260505041602 | 75 | 174 | 3.5 | 12.2 | 0.00 | 0.00 | 0.00 | 71 | 1005.3 |
| 20260505041047 | 75 | 144 | 4.3 | 12.2 | 0.00 | 0.00 | 0.00 | 71 | 1005.3 |
| 20260505040547 | 75 | 155 | 3.5 | 10.4 | 0.00 | 0.00 | 0.00 | 71 | 1005.5 |
| 20260505040059 | 75 | 165 | 3.5 | 11.3 | 0.00 | 0.00 | 0.00 | 71 | 1005.6 |
| 20260505035546 | 75 | 153 | 3.5 | 13.0 | 0.00 | 0.00 | 0.00 | 71 | 1005.5 |
| 20260505035044 | 75 | 232 | 4.3 | 13.0 | 0.00 | 0.00 | 0.00 | 71 | 1005.6 |
| 20260505034549 | 75 | 163 | 4.3 | 13.0 | 0.00 | 0.00 | 0.00 | 71 | 1005.5 |
| 20260505034044 | 75 | 0 | 5.2 | 12.2 | 0.00 | 0.00 | 0.00 | 71 | 1005.4 |
| 20260505033544 | 75 | 138 | 3.5 | 10.4 | 0.00 | 0.00 | 0.00 | 71 | 1005.4 |
| 20260505033054 | 75 | 180 | 2.6 | 13.0 | 0.00 | 0.00 | 0.00 | 70 | 1005.4 |
| 20260505032543 | 75 | 223 | 4.3 | 13.0 | 0.00 | 0.00 | 0.00 | 70 | 1005.5 |
| 20260505032042 | 75 | 156 | 4.3 | 13.9 | 0.00 | 0.00 | 0.00 | 70 | 1005.3 |
| 20260505031605 | 75 | 209 | 5.2 | 13.9 | 0.00 | 0.00 | 0.00 | 70 | 1005.3 |
| 20260505031046 | 75 | 191 | 4.3 | 12.2 | 0.00 | 0.00 | 0.00 | 70 | 1005.6 |
| 20260505030542 | 75 | 186 | 3.5 | 12.2 | 0.00 | 0.00 | 0.00 | 70 | 1005.5 |
| 20260505030057 | 75 | 177 | 2.6 | 10.4 | 0.00 | 0.00 | 0.00 | 70 | 1005.5 |
| 20260505025542 | 75 | 282 | 4.3 | 10.4 | 0.00 | 0.00 | 0.00 | 70 | 1005.6 |
| 20260505025046 | 75 | 199 | 2.6 | 9.6 | 0.00 | 0.00 | 0.00 | 70 | 1005.7 |
| 20260505024600 | 76 | 170 | 3.5 | 9.6 | 0.00 | 0.00 | 0.00 | 70 | 1005.7 |
| 20260505024046 | 76 | 109 | 3.5 | 9.6 | 0.00 | 0.00 | 0.00 | 69 | 1005.5 |
| 20260505023550 | 76 | 155 | 2.6 | 9.6 | 0.00 | 0.00 | 0.00 | 69 | 1005.5 |
| 20260505023119 | 76 | 197 | 3.5 | 9.6 | 0.00 | 0.00 | 0.00 | 69 | 1005.5 |
| 20260505022543 | 76 | 181 | 2.6 | 9.6 | 0.00 | 0.00 | 0.00 | 69 | 1005.7 |
| 20260505022043 | 76 | 166 | 1.7 | 10.4 | 0.00 | 0.00 | 0.00 | 69 | 1005.7 |
| 20260505021553 | 76 | 44 | 4.3 | 10.4 | 0.00 | 0.00 | 0.00 | 68 | 1005.3 |
| 20260505021044 | 76 | 146 | 2.6 | 11.3 | 0.00 | 0.00 | 0.00 | 68 | 1005.3 |
| 20260505020542 | 76 | 204 | 2.6 | 12.2 | 0.00 | 0.00 | 0.00 | 68 | 1005.4 |
| 20260505020048 | 76 | 176 | 2.6 | 12.2 | 0.00 | 0.00 | 0.00 | 68 | 1005.4 |
| 20260505015543 | 76 | 167 | 3.5 | 13.9 | 0.00 | 0.00 | 0.00 | 68 | 1005.5 |
| 20260505015043 | 76 | 166 | 3.5 | 13.9 | 0.00 | 0.00 | 0.00 | 68 | 1005.4 |
| 20260505014548 | 76 | 143 | 4.3 | 13.0 | 0.00 | 0.00 | 0.00 | 67 | 1005.4 |
| 20260505014042 | 76 | 271 | 3.5 | 10.4 | 0.00 | 0.00 | 0.00 | 67 | 1005.5 |
| 20260505013542 | 76 | 186 | 3.5 | 13.9 | 0.00 | 0.00 | 0.00 | 67 | 1005.4 |
| 20260505013105 | 76 | 236 | 3.5 | 13.9 | 0.00 | 0.00 | 0.00 | 67 | 1005.6 |
| 20260505012547 | 76 | 202 | 2.6 | 11.3 | 0.00 | 0.00 | 0.00 | 67 | 1005.6 |
| 20260505012047 | 77 | 142 | 2.6 | 11.3 | 0.00 | 0.00 | 0.00 | 67 | 1005.5 |
| 20260505011551 | 77 | 167 | 3.5 | 13.0 | 0.00 | 0.00 | 0.00 | 66 | 1005.4 |
| 20260505011048 | 77 | 234 | 3.5 | 13.0 | 0.00 | 0.00 | 0.00 | 66 | 1005.7 |
| 20260505010546 | 77 | 196 | 4.3 | 12.2 | 0.00 | 0.00 | 0.00 | 66 | 1005.6 |
| 20260505010050 | 77 | 169 | 5.2 | 12.2 | 0.00 | 0.00 | 0.00 | 66 | 1005.7 |
| 20260505005546 | 77 | 178 | 2.6 | 11.3 | 0.00 | 0.00 | 0.00 | 66 | 1005.7 |
| 20260505005044 | 77 | 205 | 4.3 | 13.9 | 0.00 | 0.00 | 0.00 | 66 | 1005.6 |